Location: Kra?nica
(53.4833°N, 14.6167°E)
Time: 22:03:41
(UTC+00:00)

Cosmos 2360 Rocket - Pass Details

Date: 23 May 2024
Orbit: 832 x 846 km, 71.0° (Epoch: 20 June)

Event Time Altitude Azimuth Distance (km) Brightness Sun altitude
Rises 01:56:53 0° 324° (NW) 3,417 5.5 -6.5°
Reaches altitude 10° 01:59:28 10° 318° (NW) 2,479 4.7 -6.2°
Maximum altitude 02:04:43 39° 251° (WSW) 1,244 2.7 -5.7°
Drops below altitude 10° 02:09:55 10° 184° (S) 2,463 4.2 -5.2°
Sets 02:12:29 0° 177° (S) 3,393 4.9 -4.9°
